Location: Bocchiglicro
(39.4167°N, 16.7500°E)
Time: 19:36:35
(UTC+00:00)

Cosmos 1869 - Pass Details

Date: 07 June 2020
Orbit: 519 x 563 km, 82.5° (Epoch: 11 July)

Event Time Altitude Azimuth Distance (km) Brightness Sun altitude
Rises 01:26:55 0° 343° (NNW) 2,654 7.3 -18.0°
Reaches altitude 10° 01:29:10 10° 334° (NNW) 1,760 6.2 -17.8°
Maximum altitude 01:32:42 35° 268° (W) 853 3.9 -17.3°
Enters shadow 01:33:06 34° 253° (WSW) 871 3.9 -17.3°
